SPIDA EPBC-EPBC

Flight info

Callsign SPIDA
Flight time 0h 23m
Altitude 1500
Route DCT EPBCZ DCT LUQIQ DCT
Aircraft C172/L-S/C

Departure

Time 2026-04-11 14:32
Airport Warsaw Babice Airport (EPBC)

Arrival

Time 2026-04-11 14:55
Airport Warsaw Babice Airport (EPBC)
Time Latitude Longitude Altitude Speed Heading
2026-04-11 14:27 52.27257 20.90931 354 ft 0 kts 292°
2026-04-11 14:29 52.27258 20.90931 354 ft 0 kts 292°
2026-04-11 14:29 52.27227 20.90840 348 ft 11 kts 227°
2026-04-11 14:30 52.27167 20.90843 352 ft 14 kts 176°
2026-04-11 14:30 52.27019 20.90834 351 ft 24 kts 155°
2026-04-11 14:30 52.26969 20.91010 352 ft 12 kts 114°
2026-04-11 14:30 52.26945 20.91103 348 ft 6 kts 109°
2026-04-11 14:31 52.26904 20.91150 347 ft 14 kts 214°
2026-04-11 14:31 52.26901 20.90919 351 ft 41 kts 283°
2026-04-11 14:31 52.26990 20.90253 415 ft 70 kts 289°
2026-04-11 14:31 52.27214 20.89480 548 ft 81 kts 338°
2026-04-11 14:32 52.27591 20.89970 884 ft 85 kts 78°
2026-04-11 14:32 52.27656 20.90918 1153 ft 85 kts 77°
2026-04-11 14:32 52.27674 20.91846 1468 ft 80 kts 81°
2026-04-11 14:32 52.27689 20.92784 1632 ft 90 kts 81°
2026-04-11 14:33 52.27736 20.93889 1645 ft 106 kts 82°
2026-04-11 14:33 52.27791 20.95159 1640 ft 117 kts 81°
2026-04-11 14:33 52.27862 20.96495 1639 ft 119 kts 80°
2026-04-11 14:33 52.28055 20.97803 1630 ft 119 kts 65°
2026-04-11 14:34 52.28341 20.99058 1637 ft 118 kts 66°
2026-04-11 14:34 52.28875 20.99940 1619 ft 114 kts 13°
2026-04-11 14:34 52.29622 20.99577 1627 ft 116 kts 333°
2026-04-11 14:34 52.30333 20.98946 1633 ft 117 kts 335°
2026-04-11 14:35 52.31060 20.98297 1627 ft 119 kts 335°
2026-04-11 14:35 52.31791 20.97649 1629 ft 119 kts 335°
2026-04-11 14:35 52.32505 20.96976 1628 ft 119 kts 329°
2026-04-11 14:35 52.33139 20.96082 1625 ft 120 kts 324°
2026-04-11 14:36 52.33775 20.95208 1630 ft 119 kts 321°
2026-04-11 14:36 52.34324 20.94176 1625 ft 121 kts 314°
2026-04-11 14:36 52.34850 20.93123 1622 ft 119 kts 314°
2026-04-11 14:36 52.35192 20.91874 1621 ft 121 kts 293°
2026-04-11 14:37 52.35280 20.90502 1613 ft 130 kts 256°
2026-04-11 14:37 52.34616 20.89516 1617 ft 137 kts 195°
2026-04-11 14:37 52.33733 20.89807 1619 ft 132 kts 143°
2026-04-11 14:37 52.32977 20.90664 1635 ft 133 kts 143°
2026-04-11 14:38 52.32395 20.91780 1621 ft 128 kts 117°
2026-04-11 14:38 52.31943 20.93028 1621 ft 128 kts 117°
2026-04-11 14:38 52.31491 20.94253 1618 ft 126 kts 116°
2026-04-11 14:38 52.31152 20.95536 1616 ft 120 kts 87°
2026-04-11 14:39 52.31299 20.96859 1627 ft 121 kts 86°
2026-04-11 14:39 52.31127 20.98206 1635 ft 128 kts 125°
2026-04-11 14:39 52.30463 20.99196 1640 ft 130 kts 134°
2026-04-11 14:39 52.29778 21.00169 1631 ft 130 kts 135°
2026-04-11 14:40 52.29091 21.01102 1633 ft 132 kts 147°
2026-04-11 14:40 52.28193 21.01127 1630 ft 135 kts 208°
2026-04-11 14:40 52.27699 20.99933 1640 ft 127 kts 269°
2026-04-11 14:40 52.27856 20.98578 1635 ft 120 kts 308°
2026-04-11 14:41 52.28343 20.97503 1637 ft 119 kts 314°
2026-04-11 14:41 52.28903 20.96538 1636 ft 116 kts 318°
2026-04-11 14:41 52.29466 20.95589 1635 ft 116 kts 320°
2026-04-11 14:41 52.30064 20.94699 1644 ft 117 kts 321°
2026-04-11 14:42 52.30680 20.93800 1632 ft 119 kts 322°
2026-04-11 14:42 52.31270 20.92861 1620 ft 122 kts 306°
2026-04-11 14:42 52.31277 20.91499 1604 ft 127 kts 245°
2026-04-11 14:43 52.29972 20.89604 1626 ft 123 kts 223°
2026-04-11 14:43 52.29317 20.88699 1629 ft 124 kts 223°
2026-04-11 14:43 52.28660 20.87784 1624 ft 123 kts 223°
2026-04-11 14:43 52.27960 20.86970 1423 ft 120 kts 192°
2026-04-11 14:44 52.27338 20.87514 1024 ft 111 kts 108°
2026-04-11 14:44 52.27170 20.88755 635 ft 110 kts 95°
2026-04-11 14:44 52.27018 20.89924 442 ft 110 kts 98°
2026-04-11 14:44 52.26850 20.91191 483 ft 114 kts 99°
2026-04-11 14:45 52.26681 20.92435 682 ft 114 kts 100°
2026-04-11 14:45 52.26502 20.93709 866 ft 116 kts 99°
2026-04-11 14:45 52.26383 20.94979 1061 ft 111 kts 72°
2026-04-11 14:45 52.26801 20.95940 1315 ft 104 kts 48°
2026-04-11 14:46 52.27249 20.96882 1502 ft 104 kts 47°
2026-04-11 14:46 52.27764 20.97680 1617 ft 105 kts 20°
2026-04-11 14:46 52.28470 20.97378 1619 ft 117 kts 321°
2026-04-11 14:46 52.29032 20.96389 1631 ft 120 kts 314°
2026-04-11 14:47 52.29584 20.95362 1635 ft 120 kts 316°
2026-04-11 14:47 52.30146 20.94327 1639 ft 122 kts 316°
2026-04-11 14:47 52.30705 20.93284 1633 ft 123 kts 316°
2026-04-11 14:47 52.31260 20.92209 1623 ft 125 kts 304°
2026-04-11 14:48 52.31259 20.90806 1619 ft 131 kts 245°
2026-04-11 14:48 52.30588 20.89777 1626 ft 132 kts 221°
2026-04-11 14:48 52.29876 20.88860 1487 ft 133 kts 218°
2026-04-11 14:48 52.29054 20.88144 1361 ft 132 kts 208°
2026-04-11 14:49 52.28228 20.87492 1194 ft 132 kts 206°
2026-04-11 14:49 52.27386 20.87444 1176 ft 121 kts 140°
2026-04-11 14:49 52.27028 20.89886 365 ft 107 kts 101°
2026-04-11 14:50 52.26886 20.90925 477 ft 88 kts 99°
2026-04-11 14:50 52.26729 20.91956 638 ft 98 kts 105°
2026-04-11 14:50 52.26535 20.92979 940 ft 94 kts 103°
2026-04-11 14:50 52.26339 20.93993 1222 ft 91 kts 92°
2026-04-11 14:51 52.26489 20.94907 1536 ft 81 kts 55°
2026-04-11 14:51 52.26760 20.95807 1641 ft 101 kts 57°
2026-04-11 14:51 52.27132 20.96863 1643 ft 115 kts 57°
2026-04-11 14:51 52.27546 20.98026 1639 ft 120 kts 58°
2026-04-11 14:52 52.27998 20.99173 1633 ft 120 kts 50°
2026-04-11 14:52 52.28328 20.99899 1633 ft 120 kts 52°
2026-04-11 14:52 52.28991 21.00665 1616 ft 120 kts
2026-04-11 14:52 52.29984 20.99933 1615 ft 126 kts 308°
2026-04-11 14:53 52.30127 20.98996 1620 ft 131 kts 268°
2026-04-11 14:53 52.29647 20.97768 1619 ft 135 kts 213°
2026-04-11 14:53 52.28773 20.97203 1623 ft 135 kts 197°
2026-04-11 14:53 52.27862 20.96814 1607 ft 132 kts 198°
2026-04-11 14:54 52.27024 20.96231 1244 ft 128 kts 207°
2026-04-11 14:54 52.26412 20.95461 1184 ft 99 kts 243°
2026-04-11 14:54 52.26352 20.94430 937 ft 94 kts 288°
2026-04-11 14:54 52.26525 20.93400 735 ft 89 kts 292°
2026-04-11 14:55 52.26689 20.92455 568 ft 83 kts 284°
2026-04-11 14:55 52.26793 20.91584 367 ft 73 kts 288°
2026-04-11 14:55 52.26886 20.91001 350 ft 34 kts 290°
2026-04-11 14:55 52.26973 20.90911 347 ft 8 kts 34°
2026-04-11 14:56 52.27063 20.91000 346 ft 22 kts 17°
2026-04-11 14:56 52.27189 20.91075 348 ft 16 kts 20°
2026-04-11 14:56 52.27211 20.91062 357 ft 0 kts 203°